Pine Bluffs, WY

2:25 AM MST on January 19, 2017 (GMT -0700)
Pine Bluffs Muni, Pine Bluffs

Weather History for K82V - January, 2014

Change the Weather History Date:

Sunday, January 26, 2014

  Actual Average (KCYS) Record (KCYS)
Temperature  
Mean Temperature 32 °F -  
Max Temperature 50 °F 39 °F 67 °F (2015)
Min Temperature 14 °F 17 °F -27 °F (1902)
Degree Days  
Heating Degree Days 33    
Moisture  
Dew Point 17 °F    
Average Humidity 58    
Maximum Humidity 87    
Minimum Humidity 28    
Precipitation  
Precipitation 0.00 in - - ()
Sea Level Pressure  
Sea Level Pressure 29.94 in    
Wind  
Wind Speed 18 mph (NNW)    
Max Wind Speed 34 mph    
Max Gust Speed 45 mph    
Visibility 9 miles    
Events Snow    
Averages and records for this station are not official NWS values.
T = Trace of Precipitation, MM = Missing Value Source: NWS Daily Summary

Daily Weather History Graph

Daily Weather History Graph

Search for Another Location

Airport or City:

Trip Planner

Search our weather history database for the weather conditions in past years. The results will help you decide how hot, cold, wet, or windy it might be!

Date:

Astronomy

Jan. 26, 2014 Rise Set
Actual Time 7:12 AM MST 5:05 PM MST
Civil Twilight 6:43 AM MST 5:35 PM MST
Nautical Twilight 6:09 AM MST 6:08 PM MST
Astronomical Twilight 5:37 AM MST 6:41 PM MST
Moon 2:52 AM MST (1/26) 12:57 PM MST (1/26)
Length of Visible Light 10h 52m
Length of Day
9h 53m
Waning Crescent, 23% of the Moon is Illuminated
Jan 26
Waning Crescent
Jan 30
New
Feb 6
First Quarter
Feb 14
Full
Feb 22
Last Quarter

Hourly Weather History & Observations

Time (MST) Temp. Windchill Dew Point Humidity Pressure Visibility Wind Dir Wind Speed Gust Speed Precip Events Conditions
12:15 AM 41.0 °F 30.9 °F 21.2 °F 45% 29.91 in 10.0 mi NW 24.2 mph 31.1 mph N/A   Clear
12:35 AM 39.2 °F 29.6 °F 21.2 °F 49% 29.91 in 10.0 mi WNW 19.6 mph 25.3 mph N/A   Clear
12:55 AM 37.4 °F 26.9 °F 21.2 °F 52% 29.90 in 10.0 mi WNW 20.7 mph 26.5 mph N/A   Clear
1:15 AM 37.4 °F 27.2 °F 21.2 °F 52% 29.90 in 10.0 mi WNW 19.6 mph 26.5 mph N/A   Clear
1:35 AM 37.4 °F 27.2 °F 21.2 °F 52% 29.90 in 10.0 mi WNW 19.6 mph 24.2 mph N/A   Clear
1:55 AM 35.6 °F 26.2 °F 21.2 °F 56% 29.90 in 10.0 mi NW 15.0 mph 20.7 mph N/A   Clear
2:15 AM 37.4 °F 27.2 °F 21.2 °F 52% 29.90 in 10.0 mi NW 19.6 mph - N/A   Clear
2:35 AM 35.6 °F 27.1 °F 21.2 °F 56% 29.90 in 10.0 mi NW 12.7 mph - N/A   Clear
2:55 AM 35.6 °F 28.0 °F 21.2 °F 56% 29.90 in 10.0 mi NW 10.4 mph - N/A   Clear
3:15 AM 35.6 °F 26.6 °F 21.2 °F 56% 29.89 in 10.0 mi NW 13.8 mph - N/A   Clear
3:35 AM 35.6 °F 26.6 °F 21.2 °F 56% 29.88 in 10.0 mi NNW 13.8 mph - N/A   Clear
3:55 AM 33.8 °F 23.9 °F 21.2 °F 60% 29.88 in 10.0 mi NW 15.0 mph - N/A   Clear
4:15 AM 32.0 °F 24.2 °F 21.2 °F 64% 29.88 in 10.0 mi NW 9.2 mph - N/A   Clear
4:35 AM 32.0 °F 24.2 °F 21.2 °F 64% 29.87 in 10.0 mi NNW 9.2 mph - N/A   Clear
4:55 AM 30.2 °F 21.9 °F 21.2 °F 69% 29.86 in 10.0 mi NW 9.2 mph - N/A   Clear
5:15 AM 30.2 °F 21.9 °F 21.2 °F 69% 29.86 in 10.0 mi NW 9.2 mph - N/A   Clear
5:35 AM 28.4 °F 20.4 °F 19.4 °F 69% 29.86 in 10.0 mi NW 8.1 mph - N/A   Clear
5:55 AM 26.6 °F 22.6 °F 19.4 °F 74% 29.85 in 10.0 mi WNW 3.5 mph - N/A   Clear
6:15 AM 28.4 °F 24.6 °F 19.4 °F 69% 29.84 in 10.0 mi West 3.5 mph - N/A   Clear
6:35 AM 26.6 °F 20.0 °F 19.4 °F 74% 29.84 in 10.0 mi West 5.8 mph - N/A   Clear
6:55 AM 28.4 °F 23.3 °F 19.4 °F 69% 29.84 in 10.0 mi WNW 4.6 mph - N/A   Clear
7:15 AM 26.6 °F 18.2 °F 19.4 °F 74% 29.83 in 10.0 mi WNW 8.1 mph - N/A   Clear
7:35 AM 30.2 °F 22.6 °F 21.2 °F 69% 29.83 in 10.0 mi WNW 8.1 mph - N/A   Clear
7:55 AM 30.2 °F 25.4 °F 21.2 °F 69% 29.82 in 10.0 mi West 4.6 mph - N/A   Clear
8:15 AM 32.0 °F 28.7 °F 23.0 °F 69% 29.82 in 10.0 mi West 3.5 mph - N/A   Clear
8:35 AM 37.4 °F 28.5 °F 21.2 °F 52% 29.81 in 10.0 mi NW 15.0 mph - N/A   Clear
8:55 AM 42.8 °F 34.8 °F 21.2 °F 42% 29.80 in 10.0 mi NNW 17.3 mph 21.9 mph N/A   Clear
9:15 AM 42.8 °F 34.8 °F 19.4 °F 39% 29.80 in 10.0 mi NNW 17.3 mph - N/A   Clear
9:35 AM 41.0 °F 32.8 °F 21.2 °F 45% 29.81 in 10.0 mi NNW 16.1 mph 20.7 mph N/A   Clear
9:55 AM 41.0 °F 33.1 °F 19.4 °F 42% 29.81 in 10.0 mi NNW 15.0 mph - N/A   Clear
10:15 AM 41.0 °F 33.1 °F 19.4 °F 42% 29.81 in 10.0 mi North 15.0 mph 19.6 mph N/A   Clear
10:35 AM 42.8 °F 35.8 °F 17.6 °F 36% 29.81 in 10.0 mi NNW 13.8 mph - N/A   Clear
10:55 AM 42.8 °F 35.1 °F 19.4 °F 39% 29.82 in 10.0 mi North 16.1 mph - N/A   Clear
11:15 AM 46.4 °F 39.8 °F 19.4 °F 34% 29.82 in 10.0 mi NNW 16.1 mph 21.9 mph N/A   Clear
11:35 AM 46.4 °F 39.8 °F 19.4 °F 34% 29.81 in 10.0 mi NNW 16.1 mph - N/A   Clear
11:55 AM 48.2 °F - 19.4 °F 32% 29.81 in 10.0 mi NNW 18.4 mph - N/A   Clear
12:15 PM 50.0 °F - 17.6 °F 28% 29.82 in 10.0 mi NW 34.5 mph 41.4 mph N/A   Clear
12:35 PM 48.2 °F - 17.6 °F 30% 29.82 in 10.0 mi NNW 26.5 mph 34.5 mph N/A   Clear
12:55 PM 46.4 °F 37.7 °F 17.6 °F 32% 29.83 in 10.0 mi NNW 26.5 mph 32.2 mph N/A   Scattered Clouds
1:15 PM 44.6 °F 35.1 °F 21.2 °F 39% 29.83 in 10.0 mi North 27.6 mph 33.4 mph N/A   Mostly Cloudy
1:35 PM 41.0 °F 29.5 °F 26.6 °F 57% 29.85 in 10.0 mi North 32.2 mph 40.3 mph N/A   Mostly Cloudy
1:55 PM 41.0 °F 29.8 °F 28.4 °F 61% 29.87 in 10.0 mi North 29.9 mph 40.3 mph N/A   Mostly Cloudy
2:15 PM 37.4 °F 24.2 °F 26.6 °F 65% 29.88 in 10.0 mi North 34.5 mph 44.9 mph N/A   Overcast
2:35 PM 37.4 °F 24.2 °F 26.6 °F 65% 29.89 in 10.0 mi North 34.5 mph 41.4 mph N/A   Overcast
2:55 PM 35.6 °F 21.7 °F 24.8 °F 65% 29.90 in 10.0 mi North 34.5 mph 42.6 mph N/A   Overcast
3:15 PM 32.0 °F 17.0 °F 28.4 °F 87% 29.93 in 3.0 mi North 33.4 mph 39.1 mph N/A Snow Light Snow
3:35 PM 28.4 °F 13.8 °F 24.8 °F 86% 29.97 in 1.5 mi NNE 25.3 mph 38.0 mph N/A Snow Light Snow
3:55 PM 26.6 °F 12.7 °F 21.2 °F 80% 30.00 in 2.0 mi NNE 20.7 mph 31.1 mph N/A Snow Light Snow
4:15 PM 24.8 °F 10.7 °F 21.2 °F 86% 30.01 in 1.8 mi NNE 19.6 mph 28.8 mph N/A Snow Light Snow
4:35 PM 23.0 °F 6.6 °F 19.4 °F 86% 30.02 in 4.0 mi North 25.3 mph 32.2 mph N/A Snow Light Snow
4:55 PM 23.0 °F 6.3 °F 17.6 °F 80% 30.03 in 10.0 mi North 26.5 mph 34.5 mph N/A Snow Light Snow
5:15 PM 23.0 °F 7.2 °F 15.8 °F 74% 30.03 in 10.0 mi North 23.0 mph 32.2 mph N/A Snow Light Snow
5:35 PM 23.0 °F 6.6 °F 14.0 °F 68% 30.04 in 10.0 mi North 25.3 mph 34.5 mph N/A   Overcast
5:55 PM 21.2 °F 3.9 °F 8.6 °F 58% 30.05 in 10.0 mi North 26.5 mph 40.3 mph N/A   Overcast
6:15 PM 21.2 °F 3.3 °F 6.8 °F 54% 30.06 in 10.0 mi North 28.8 mph 35.7 mph N/A   Overcast
6:35 PM 19.4 °F 0.5 °F 5.0 °F 54% 30.05 in 10.0 mi North 29.9 mph 41.4 mph N/A   Mostly Cloudy
6:55 PM 19.4 °F -0.3 °F 5.0 °F 54% 30.05 in 7.0 mi North 33.4 mph 42.6 mph N/A   Mostly Cloudy
7:15 PM 19.4 °F -0.0 °F 3.2 °F 49% 30.07 in 10.0 mi North 32.2 mph 41.4 mph N/A   Mostly Cloudy
7:35 PM 19.4 °F 1.4 °F 3.2 °F 49% 30.08 in 10.0 mi North 26.5 mph 43.7 mph N/A   Overcast
7:55 PM 19.4 °F 3.6 °F 3.2 °F 49% 30.10 in 10.0 mi North 19.6 mph 33.4 mph N/A   Overcast
8:15 PM 19.4 °F 1.8 °F 3.2 °F 49% 30.09 in 10.0 mi North 25.3 mph 32.2 mph N/A   Overcast
8:35 PM 17.6 °F 0.1 °F 3.2 °F 53% 30.08 in 10.0 mi North 23.0 mph 31.1 mph N/A   Overcast
8:55 PM 17.6 °F 0.9 °F 3.2 °F 53% 30.10 in 10.0 mi North 20.7 mph 28.8 mph N/A   Overcast
9:15 PM 17.6 °F 3.7 °F 3.2 °F 53% 30.12 in 10.0 mi North 13.8 mph - N/A   Overcast
9:35 PM 17.6 °F 3.7 °F 5.0 °F 58% 30.13 in 10.0 mi North 13.8 mph - N/A   Overcast
9:55 PM 17.6 °F 3.7 °F 5.0 °F 58% 30.13 in 10.0 mi North 13.8 mph - N/A   Overcast
10:15 PM 15.8 °F 2.1 °F 5.0 °F 62% 30.14 in 10.0 mi North 12.7 mph - N/A   Overcast
10:35 PM 15.8 °F 2.1 °F 5.0 °F 62% 30.15 in 10.0 mi North 12.7 mph - N/A   Overcast
10:55 PM 15.8 °F 3.4 °F 5.0 °F 62% 30.15 in 10.0 mi North 10.4 mph - N/A Snow Light Snow
11:15 PM 14.0 °F -0.2 °F 6.8 °F 73% 30.15 in 5.0 mi NNW 12.7 mph - N/A Snow Light Snow
11:35 PM 14.0 °F 1.2 °F 8.6 °F 79% 30.15 in 2.5 mi NNW 10.4 mph - N/A Snow Light Snow
11:55 PM 14.0 °F 2.9 °F 8.6 °F 79% 30.15 in 4.0 mi North 8.1 mph - N/A Snow Light Snow